Time,TemperatureF,DewpointF,PressureIn,WindDirection,WindDirectionDegrees,WindSpeedMPH,WindSpeedGustMPH,Humidity,HourlyPrecipIn,Conditions,Clouds,dailyrainin,SoftwareType,DateUTC
2013-08-20 00:11:00,70.0,-99.9,-100.00,WNW,301,12.0,17.0,-999,-99.99,,,-99.99,,2013-08-20 07:11:00,
2013-08-20 00:22:00,70.0,-99.9,-100.00,WNW,301,12.0,17.0,-999,-99.99,,,-99.99,,2013-08-20 07:22:00,
2013-08-20 00:42:00,70.0,-99.9,-100.00,West,261,8.0,12.0,-999,-99.99,,,-99.99,,2013-08-20 07:42:00,
2013-08-20 00:52:00,69.0,-99.9,-100.00,WSW,256,5.0,11.0,-999,-99.99,,,-99.99,,2013-08-20 07:52:00,
2013-08-20 01:11:00,71.0,-99.9,-100.00,West,269,10.0,19.0,-999,-99.99,,,-99.99,,2013-08-20 08:11:00,
2013-08-20 01:22:00,71.0,-99.9,-100.00,West,269,10.0,19.0,-999,-99.99,,,-99.99,,2013-08-20 08:22:00,
2013-08-20 01:42:00,70.0,-99.9,-100.00,WNW,283,11.0,16.0,-999,-99.99,,,-99.99,,2013-08-20 08:42:00,
2013-08-20 01:52:00,70.0,-99.9,-100.00,WNW,283,11.0,16.0,-999,-99.99,,,-99.99,,2013-08-20 08:52:00,
2013-08-20 02:42:00,69.0,-99.9,-100.00,NNW,328,5.0,13.0,-999,-99.99,,,-99.99,,2013-08-20 09:42:00,
2013-08-20 02:53:00,69.0,-99.9,-100.00,NNW,328,5.0,13.0,-999,-99.99,,,-99.99,,2013-08-20 09:53:00,
2013-08-20 03:10:00,64.0,-99.9,-100.00,West,278,3.0,11.0,-999,-99.99,,,-99.99,,2013-08-20 10:10:00,
2013-08-20 03:43:00,64.0,-99.9,-100.00,WSW,256,7.0,13.0,-999,-99.99,,,-99.99,,2013-08-20 10:43:00,
2013-08-20 03:52:00,64.0,-99.9,-100.00,West,278,3.0,11.0,-999,-99.99,,,-99.99,,2013-08-20 10:52:00,
2013-08-20 04:02:00,64.0,-99.9,-100.00,West,278,3.0,11.0,-999,-99.99,,,-99.99,,2013-08-20 11:02:00,
2013-08-20 04:42:00,62.0,-99.9,-100.00,WNW,285,6.0,16.0,-999,-99.99,,,-99.99,,2013-08-20 11:42:00,
2013-08-20 04:52:00,62.0,-99.9,-100.00,WNW,285,6.0,16.0,-999,-99.99,,,-99.99,,2013-08-20 11:52:00,
2013-08-20 05:42:00,62.0,-99.9,-100.00,West,271,10.0,11.0,-999,-99.99,,,-99.99,,2013-08-20 12:42:00,
2013-08-20 05:52:00,62.0,-99.9,-100.00,West,271,10.0,11.0,-999,-99.99,,,-99.99,,2013-08-20 12:52:00,
2013-08-20 06:42:00,63.0,-99.9,-100.00,West,278,11.0,16.0,-999,-99.99,,,-99.99,,2013-08-20 13:42:00,
2013-08-20 06:52:00,63.0,-99.9,-100.00,West,278,11.0,16.0,-999,-99.99,,,-99.99,,2013-08-20 13:52:00,
2013-08-20 07:42:00,62.0,-99.9,-100.00,West,280,8.0,17.0,-999,-99.99,,,-99.99,,2013-08-20 14:42:00,
2013-08-20 07:52:00,62.0,-99.9,-100.00,West,280,8.0,17.0,-999,-99.99,,,-99.99,,2013-08-20 14:52:00,
2013-08-20 08:15:00,67.0,-99.9,-100.00,NNW,328,8.0,10.0,-999,-99.99,,,-99.99,,2013-08-20 15:15:00,
2013-08-20 08:43:00,65.0,-99.9,-100.00,West,279,6.0,14.0,-999,-99.99,,,-99.99,,2013-08-20 15:43:00,
2013-08-20 08:54:00,65.0,-99.9,-100.00,West,279,6.0,14.0,-999,-99.99,,,-99.99,,2013-08-20 15:54:00,
2013-08-20 09:42:00,69.0,-99.9,-100.00,West,281,10.0,11.0,-999,-99.99,,,-99.99,,2013-08-20 16:42:00,
2013-08-20 09:53:00,68.0,-99.9,-100.00,West,260,6.0,11.0,-999,-99.99,,,-99.99,,2013-08-20 16:53:00,
2013-08-20 10:12:00,69.0,-99.9,-100.00,WSW,241,9.0,15.0,-999,-99.99,,,-99.99,,2013-08-20 17:12:00,
2013-08-20 10:24:00,69.0,-99.9,-100.00,WSW,241,9.0,15.0,-999,-99.99,,,-99.99,,2013-08-20 17:24:00,
2013-08-20 10:43:00,71.0,-99.9,-100.00,WSW,244,3.0,10.0,-999,-99.99,,,-99.99,,2013-08-20 17:43:00,
2013-08-20 10:52:00,71.0,-99.9,-100.00,WSW,244,3.0,10.0,-999,-99.99,,,-99.99,,2013-08-20 17:52:00,
2013-08-20 11:22:00,73.0,-99.9,-100.00,WNW,299,0.0,6.0,-999,-99.99,,,-99.99,,2013-08-20 18:22:00,
2013-08-20 11:43:00,73.0,-99.9,-100.00,NNW,342,7.0,7.0,-999,-99.99,,,-99.99,,2013-08-20 18:43:00,
2013-08-20 11:52:00,73.0,-99.9,-100.00,NNW,338,2.0,9.0,-999,-99.99,,,-99.99,,2013-08-20 18:52:00,
2013-08-20 12:01:00,73.0,-99.9,-100.00,NNW,338,2.0,9.0,-999,-99.99,,,-99.99,,2013-08-20 19:01:00,
2013-08-20 12:42:00,75.0,-99.9,-100.00,NNW,348,5.0,7.0,-999,-99.99,,,-99.99,,2013-08-20 19:42:00,
2013-08-20 12:53:00,75.0,-99.9,-100.00,NNW,348,5.0,7.0,-999,-99.99,,,-99.99,,2013-08-20 19:53:00,
2013-08-20 13:10:00,82.0,-99.9,-100.00,NW,304,3.0,6.0,-999,-99.99,,,-99.99,,2013-08-20 20:10:00,
2013-08-20 13:22:00,76.0,-99.9,-100.00,WNW,302,1.0,8.0,-999,-99.99,,,-99.99,,2013-08-20 20:22:00,
2013-08-20 13:42:00,80.0,-99.9,-100.00,NW,318,4.0,7.0,-999,-99.99,,,-99.99,,2013-08-20 20:42:00,
2013-08-20 13:52:00,82.0,-99.9,-100.00,NW,304,3.0,6.0,-999,-99.99,,,-99.99,,2013-08-20 20:52:00,
2013-08-20 13:55:00,82.0,-99.9,-100.00,West,278,10.0,12.0,-999,-99.99,,,-99.99,,2013-08-20 20:55:00,
2013-08-20 14:03:00,82.0,-99.9,-100.00,NW,304,3.0,6.0,-999,-99.99,,,-99.99,,2013-08-20 21:03:00,
2013-08-20 14:22:00,83.0,-99.9,-100.00,West,274,3.0,6.0,-999,-99.99,,,-99.99,,2013-08-20 21:22:00,
2013-08-20 14:44:00,82.0,-99.9,-100.00,West,278,10.0,12.0,-999,-99.99,,,-99.99,,2013-08-20 21:44:00,
2013-08-20 15:42:00,86.0,-99.9,-100.00,SW,236,5.0,11.0,-999,-99.99,,,-99.99,,2013-08-20 22:42:00,
2013-08-20 15:54:00,86.0,-99.9,-100.00,WSW,238,5.0,10.0,-999,-99.99,,,-99.99,,2013-08-20 22:54:00,
2013-08-20 16:03:00,86.0,-99.9,-100.00,WSW,238,5.0,10.0,-999,-99.99,,,-99.99,,2013-08-20 23:03:00,
2013-08-20 17:12:00,86.0,-99.9,-100.00,WSW,240,10.0,14.0,-999,-99.99,,,-99.99,,2013-08-21 00:12:00,
2013-08-20 17:42:00,87.0,-99.9,-100.00,WNW,286,15.0,18.0,-999,-99.99,,,-99.99,,2013-08-21 00:42:00,
2013-08-20 17:52:00,87.0,-99.9,-100.00,WNW,303,12.0,20.0,-999,-99.99,,,-99.99,,2013-08-21 00:52:00,
2013-08-20 18:02:00,87.0,-99.9,-100.00,WNW,303,12.0,20.0,-999,-99.99,,,-99.99,,2013-08-21 01:02:00,
2013-08-20 18:42:00,88.0,-99.9,-100.00,WNW,294,7.0,17.0,-999,-99.99,,,-99.99,,2013-08-21 01:42:00,
2013-08-20 18:52:00,88.0,-99.9,-100.00,WNW,294,7.0,17.0,-999,-99.99,,,-99.99,,2013-08-21 01:52:00,
2013-08-20 19:22:00,88.0,-99.9,-100.00,WNW,291,5.0,16.0,-999,-99.99,,,-99.99,,2013-08-21 02:22:00,
2013-08-20 19:42:00,82.0,-99.9,-100.00,WNW,283,8.0,14.0,-999,-99.99,,,-99.99,,2013-08-21 02:42:00,
2013-08-20 19:52:00,82.0,-99.9,-100.00,WNW,283,8.0,14.0,-999,-99.99,,,-99.99,,2013-08-21 02:52:00,
2013-08-20 19:55:00,82.0,-99.9,-100.00,West,262,6.0,12.0,-999,-99.99,,,-99.99,,2013-08-21 02:55:00,
2013-08-20 20:12:00,87.0,-99.9,-100.00,WSW,255,5.0,6.0,-999,-99.99,,,-99.99,,2013-08-21 03:12:00,
2013-08-20 20:23:00,85.0,-99.9,-100.00,WSW,244,7.0,17.0,-999,-99.99,,,-99.99,,2013-08-21 03:23:00,
2013-08-20 20:44:00,82.0,-99.9,-100.00,West,262,6.0,12.0,-999,-99.99,,,-99.99,,2013-08-21 03:44:00,
2013-08-20 21:44:00,83.0,-99.9,-100.00,WSW,238,4.0,10.0,-999,-99.99,,,-99.99,,2013-08-21 04:44:00,
2013-08-20 21:54:00,78.0,-99.9,-100.00,WNW,283,6.0,7.0,-999,-99.99,,,-99.99,,2013-08-21 04:54:00,
2013-08-20 22:02:00,78.0,-99.9,-100.00,WNW,283,6.0,7.0,-999,-99.99,,,-99.99,,2013-08-21 05:02:00,
2013-08-20 22:43:00,80.0,-99.9,-100.00,West,272,4.0,7.0,-999,-99.99,,,-99.99,,2013-08-21 05:43:00,
2013-08-20 22:52:00,80.0,-99.9,-100.00,NW,311,4.0,7.0,-999,-99.99,,,-99.99,,2013-08-21 05:52:00,
2013-08-20 23:12:00,80.0,-99.9,-100.00,West,266,5.0,7.0,-999,-99.99,,,-99.99,,2013-08-21 06:12:00,
2013-08-20 23:42:00,76.0,-99.9,-100.00,North,353,4.0,6.0,-999,-99.99,,,-99.99,,2013-08-21 06:42:00,
2013-08-20 23:52:00,74.0,-99.9,-100.00,NW,324,0.0,7.0,-999,-99.99,,,-99.99,,2013-08-21 06:52:00,